Regional Weather Roundup
Issued by NWS

Home | Current Version | Previous Version | Text Only | Print | Product List | Glossary On
Versions: 1 2 3 4 5 6 7 8 9 10 11 12 13 14 15 16 17 18 19 20 21 22 23 24 25 26 27 28 29 30 31 32 33 34 35 36 37 38 39 40 41 42 43 44 45 46 47 48 49 50
000
ASUS46 KPQR 171310
RWROR

OREGON REGIONAL WEATHER ROUNDUP
NATIONAL WEATHER SERVICE PORTLAND OR
600 AM PDT WED SEP 17 2014

NOTE: "FAIR" INDICATES FEW OR NO CLOUDS BELOW 12,000 FEET WITH
NO SIGNIFICANT WEATHER AND/OR OBSTRUCTIONS TO VISIBILITY.

ORZ001>013-171400-
NORTHWEST OREGON


CITY           SKY/WX    TMP DP  RH WIND       PRES   REMARKS
ASTORIA        LGT RAIN  56  54  93 CALM      29.75F
PORTLAND       CLOUDY    62  56  80 NW7       29.75F
VANCOUVER WA   CLOUDY    61  55  81 NW5       29.75F
SCAPPOOSE      CLOUDY    58  55  90 SW5       29.76S
HILLSBORO      CLOUDY    60  56  86 CALM      29.75F
AURORA         CLOUDY    60  54  80 N5        29.75F
MCMINNVILLE    CLOUDY    58  54  86 W3        29.75F
SALEM          CLOUDY    62  54  74 NW5       29.74F
CORVALLIS      CLOUDY    57  52  82 CALM      29.76F
EUGENE         CLOUDY    58  51  78 CALM      29.74F
$$

ORZ021-028-171400-
SOUTHWEST OREGON


CITY           SKY/WX    TMP DP  RH WIND       PRES   REMARKS
NORTH BEND     CLOUDY    57  55  94 CALM      29.76S
BROOKINGS      LGT RAIN  58  54  86 S3        29.75F
ROSEBURG       CLOUDY    62  53  72 CALM      29.75F
SEXTON SUMMIT  CLOUDY    62  41  46 SW5       29.84S
MEDFORD        CLOUDY    64  47  53 CALM      29.75S
$$

ORZ009-041-171400-
COLUMBIA GORGE


CITY           SKY/WX    TMP DP  RH WIND       PRES   REMARKS
TROUTDALE      CLOUDY    58  54  86 CALM      29.74F
THE DALLES     CLOUDY    61  49  64 W3        29.74F
$$

ORZ029>031-042>050-061>064-171400-
EASTERN OREGON


CITY           SKY/WX    TMP DP  RH WIND       PRES   REMARKS
REDMOND        CLOUDY    54  36  50 S5        29.85S
BEND           CLOUDY    55  39  54 S5        29.87F
KLAMATH FALLS  CLOUDY    56  32  40 SE10      29.89S
LAKEVIEW       CLOUDY    45  27  49 CALM      29.98S
HERMISTON      MOCLDY    58  41  53 SE3       29.74F
PENDLETON      MOCLDY    58  35  42 SE7       29.77S
JOHN DAY       PTSUNNY   59  33  37 SE9       29.89F
MEACHAM        CLOUDY    45  35  68 CALM      29.89F
LA GRANDE      CLOUDY    54  30  40 CALM      29.85F
BAKER CITY     MOCLDY    47  41  80 E3        29.89S
BURNS          MOCLDY    40  25  55 CALM      29.93R
ROME             N/A     61  30  31 SE8       29.91F
ONTARIO        CLOUDY    61  48  62 CALM      29.82S
$$


USA.gov is the U.S. government's official web portal to all federal, state and local government web resources and services.